User: anonymous   Login
Location: Theydon Bois
(51.6750°N, 0.1050°E)
Time: 08:59:56
(UTC+01:00)
Language:

Cosmos 1452 Rocket - Orbit

View from above orbital plane
View from above orbital plane
View from above satellite
View from above satellite

Ground track
Ground track

The orbit data is extracted from the following two-line orbital elements,

1 13992U 83031B   18229.66468614  .00000023  00000-0  16855-4 0  9996
2 13992  74.0541 304.9218 0005056 193.6648 166.4369 14.36125389850029
Epoch (UTC): 17 August 2018 15:57:08
Eccentricity: 0.0005056
inclination: 74.0541°
perigee height: 768 km
apogee height: 775 km
right ascension of ascending node: 304.9218°
argument of perigee: 193.6648°
revolutions per day: 14.36125389
mean anomaly at epoch: 166.4369°
orbit number at epoch: 85002

The dashed part of the orbit path shows where the satellite is in the earth's shadow,  

DLR